www.pogodaiklimat.ru

Погода и климат >> Архив погоды >> Албания >> Тирана Лапрака


ПОГОДА в Тиране Лапрака

  • Прогноз погоды в Тиране Лапрака
  • Монитор погоды в Тиране Лапрака

АРХИВ ПОГОДЫ в Тиране Лапрака

Время (UTC), дата Ветер
(напр.,м/с)
 
Видим.   Явления Облачность Т
(С)
Тd
(С)
f
(%)
Тe
(С)
Тes
(С)
Комфортность P
(гПа)
Po
(гПа)
Тmin
(С)
Tmax
(С)
R
(мм)
R24
(мм)
S
(см)
06 12.08 штиль 0 15 км ясно +27.0 +21.1 70 +34 +39 очень
душно
1007.9 998.5 +25.0
09 12.08 В 3 20 км ясно +34.2 +20.2 44 +41 +53 опасность
перегрева
1007.7 998.5
12 12.08 З 5 15 км ясно +39.0 +19.3 32 +44 +52 опасность
перегрева
1006.5 997.4
15 12.08 СЗ 6 15 км ясно +38.4 +19.7 34 +44 +46 опасность
перегрева
1004.9 995.8
18 12.08 СЗ 2 15 км ясно +34.2 +24.4 57 +47 +47 опасность
перегрева
1004.5 995.3 +39.4
21 12.08 штиль 0 10 км ясно +30.4 +24.3 70 +42 +42 опасность
перегрева
1006.0 996.7
00 13.08 штиль 0 10 км ясно +28.6 +18.4 54 +33 +33 очень
душно
1005.8 996.4
03 13.08 штиль 0 15 км ясно +26.4 +20.5 70 +33 +33 очень
душно
1005.3 995.8
06 13.08 штиль 0 15 км ясно +26.8 +20.3 68 +33 +38 очень
душно
1006.0 996.6 +25.2
09 13.08 штиль 0 15 км ясно +35.0 +17.3 35 +38 +58 опасность
солнечного
удара
1006.1 996.9
12 13.08 З 3 15 км ясно +37.4 +21.5 40 +45 +58 опасность
перегрева
1004.8 995.7
15 13.08 СЗ 4 15 км ясно +36.0 +18.2 35 +40 +43 очень
душно
1003.8 994.7
18 13.08 СВ 2 15 км ясно +34.8 +16.7 34 +38 +38 очень
душно
1003.9 994.8 +37.4
21 13.08 штиль 0 10 км 1/0
[Ac trans]
+29.6 +24.5 74 +42 +42 опасность
перегрева
1004.2 994.9
00 14.08 штиль 0 10 км ясно +28.0 +21.4 67 +35 +35 очень
душно
1004.3 994.9
03 14.08 штиль 0 10 км ясно +25.4 +23.3 88 +34 +34 очень
душно
1004.0 994.6
06 14.08 штиль 0 10 км ясно +26.4 +22.6 80 +35 +39 очень
душно
1004.9 995.5 +24.5
09 14.08 ЮЗ 4 10 км ясно +32.4 +22.2 55 +41 +51 опасность
перегрева
1004.7 995.5
12 14.08 СЗ 6 10 км 4/1 1200 м
[Cu med, cong Ci sp]
+33.8 +25.5 62 +48 +54 опасность
перегрева
1004.5 995.3
15 14.08 ЮЗ 12 10 км 8/8 1000 м
[Cu med, cong]
+31.0 +27.2 80 +49 +49 опасность
перегрева
1004.8 995.5
18 14.08 СЗ 2 10 км в посл. час дождь 8/4 1000 м
[Cu med, cong Ac trans]
+27.6 +22.1 72 +36 +36 очень
душно
1004.7 995.3 +34.6 1
21 14.08 штиль 0 10 км 1/0
[Ac trans]
+25.4 +21.2 78 +32 +32 очень
душно
1005.1 995.7
00 15.08 штиль 0 10 км ясно +22.8 +22.0 95 +31 +31 очень
душно
1006.0 996.4
03 15.08 штиль 0 10 км ясно +21.3 +19.2 88 +26 +26 душно 1006.0 996.4
06 15.08 штиль 0 15 км 1/0
[Ac trans]
+22.6 +19.6 83 +29 +33 очень
душно
1006.3 996.8 +20.4
09 15.08 СЗ 2 15 км 8/3 1200 м
[Sc Ac trans Ci fib]
+27.2 +21.2 70 +34 +41 очень
душно
1006.4 997.0
12 15.08 СЗ 8 15 км 6/1 1200 м
[Cu med, cong Ac trans]
+31.0 +17.3 44 +35 +37 очень
душно
1006.2 996.8
15 15.08 СЗ 10 15 км 1/1 1000 м
[Cu hum]
+30.0 +19.3 53 +36 +36 очень
душно
1006.4 997.1
18 15.08 ЮЗ 4 15 км ясно +27.0 +21.5 72 +34 +34 очень
душно
1007.3 997.9 +31.5
21 15.08 ЮВ 1 10 км ясно +25.0 +21.4 80 +32 +32 очень
душно
1008.4 998.8
00 16.08 штиль 0 10 км ясно +23.2 +21.6 91 +31 +31 очень
душно
1009.0 999.4
03 16.08 штиль 0 10 км ясно +21.2 +20.6 96 +26 +26 душно 1009.2 999.5
06 16.08 ЮВ 2 10 км 5/0
[Ac und]
+22.4 +18.9 81 +28 +30 душно 1009.1 999.5 +21.0
09 16.08 СЗ 6 10 км 4/4 1300 м
[Cu med, cong]
+27.0 +20.1 66 +33 +37 очень
душно
1008.8 999.4
12 16.08 С 6 10 км 5/5 1300 м
[Cu med, cong]
+30.2 +17.3 46 +34 +37 очень
душно
1008.2 998.9
15 16.08 СЗ 4 15 км ясно +30.2 +15.1 40 +33 +36 душно 1008.2 998.9
18 16.08 СЗ 4 15 км 4/0
[Ac trans Ci fib]
+25.8 +20.8 74 +32 +32 очень
душно
1008.9 999.4 +31.4
21 16.08 штиль 0 10 км ясно +24.2 +22.1 88 +31 +31 очень
душно
1009.7 1000.2
00 17.08 штиль 0 10 км ясно +23.6 +21.9 90 +30 +30 очень
душно
1009.8 1000.2
03 17.08 ЮВ 2 10 км ясно +22.0 +19.7 87 +28 +28 душно 1009.7 1000.1
06 17.08 штиль 0 15 км ясно +21.4 +17.8 80 +26 +30 душно 1010.9 1001.3 +20.4
09 17.08 З 4 15 км ясно +26.4 +17.4 58 +31 +40 душно 1010.9 1001.4
12 17.08 СЗ 8 15 км 3/1 1200 м
[Cu hum Ci fib]
+30.4 +12.3 33 +31 +34 жарко 1010.5 1001.1
15 17.08 С 14 15 км 8/8 1200 м
[Cu Sc Cc]
+28.8 +15.6 45 +32 +32 душно 1010.7 1001.3
18 17.08 СЗ 6 15 км 1/0
[Ci sp]
+25.0 +21.4 80 +32 +32 очень
душно
1010.8 1001.3 +30.4
21 17.08 штиль 0 10 км ясно +24.0 +21.9 88 +31 +31 очень
душно
1011.2 1001.6
03 18.08 Ю 2 10 км 4/0
[Ci sp]
+20.6 +16.7 78 +25 +25 комфорт 1011.0 1001.3
06 18.08 штиль 0 10 км 6/0
[Ci sp]
+20.2 +16.8 81 +23 +27 комфорт 1011.5 1001.8 +19.5
09 18.08 штиль 0 20 км 1/0
[Ci fib]
+27.2 +17.4 55 +31 +50 душно 1012.3 1002.8
12 18.08 С 4 20 км 1/0
[Ci fib]
+32.4 +12.1 29 +33 +43 жарко 1011.7 1002.4
15 18.08 СЗ 12 15 км ясно +30.4 +17.2 45 +34 +34 очень
душно
1011.6 1002.2
18 18.08 СЗ 6 15 км ясно +27.4 +20.7 67 +34 +34 очень
душно
1011.7 1002.2 +33.0
21 18.08 штиль 0 10 км ясно +24.6 +22.1 86 +32 +32 очень
душно
1011.9 1002.3
00 19.08 штиль 0 10 км ясно +23.6 +20.0 80 +29 +29 душно 1011.8 1002.2
03 19.08 штиль 0 10 км ясно +21.6 +17.2 76 +26 +26 душно 1011.9 1002.3

 

Местоположение метеостанции Тирана Лапрака (Албания): широта 41.33 долгота 19.07 высота над уровнем моря 90 м.

В архиве по умолчанию представлена погода в Тиране Лапрака за последнюю неделю. Архивные данные за месяц целиком и за предыдущие месяцы, начиная с января 2011 года, Вы можете получить, выбрав интересующий диапазон дат из раскрывающегося списка и нажав кнопку "Ввод!".


*Определитесь, кто Вы:
робот инопланетянин человек

Внимание! Время в таблицах - всемирное. Для получения местного времени необходимо прибавить поправку, которая равна 1 ч.

Смотрите также архив погоды в соседних городах и на ближайших метеорологических станциях:

Погода в Дурресе (Албания) (32 км)
Погода в Тиране (Албания) (59 км)
Погода в Баре (Черногория) (86 км)
Погода в Эльбасане (Албания) (90 км)
Погода в Кучове (Албания) (91 км)
Погода в Шкодре (Албания) (94 км)
Погода на Сазани (Албания) (94 км)
Погода во Влёре (Албания) (102 км)
Погода в Подгорице (Черногория) (117 км)
Погода в Пешкопии (Албания) (120 км)

Пояснения к столбцам:

Ветер - указаны скорость ветра в м/с - средняя за 10 мин, порывы в срок и между сроками (в фигурных скобках) и направление, откуда дует ветер: С - северный, СВ - северо-восточный, В - восточный, ЮВ - юго-восточный, Ю - южный, ЮЗ - юго-западный, З - западный, СЗ - северо-западный.
Видимость - горизонтальная дальность видимости в метрах или километрах. При видимости от 1 до 10 км при отсутствии осадков обычно наблюдается дымка, при ухудшении видимости до 1 км и менее - туман. В сухую погоду видимость может ухудшаться дымом, пылью или мглою.
Явления - указаны атмосферные явления, наблюдавшиеся в срок или в последний час перед сроком; фигурными скобками обозначены явления, наблюдавшиеся между сроками (за 1-3 часа до срока); квадратными скобками обозначены град или гололедные отложения с указанием их диаметра в мм.
Облачность - указаны через наклонную черту общая и нижняя облачность в баллах и высота нижней границы облаков в метрах; квадратными скобками обозначены формы облаков: Ci - перистые, Cs - перисто-слоистые, Cc - перисто-кучевые, Ac - высококучевые, As - высокослоистые, Sc - слоисто-кучевые, Ns - слоисто-дождевые, Cu - кучевые, Cb - кучево-дождевые. Подробнее классификацию облаков см. в Атласе облаков (PDF).
T - Температура воздуха - температура, измеренная на высоте 2 м над землей.
Td - Температура точки росы - температура, при понижении до которой содержащийся в воздухе водяной пар достигнет насыщения.
f - Относительная влажность воздуха - влажноcть воздуха, измеренная на высоте 2 м над землей.
Te - Эффективная температура - температура, которую ощущает одетый по сезону человек в тени. Характеристика душности погоды. При расчете учитывается влияние влажности воздуха и скорости ветра на теплоощущения человека.
Tes - Эффективная температура на солнце - температура, которую ощущает человек, с поправкой на солнечный нагрев. Характеристика знойности погоды. Зависит от высоты солнца над горизонтом, облачности и скорости ветра. Ночью, в пасмурную погоду, а также при ветре 12 м/с и более поправка равна нулю.
P - Атмосферное давление - приведенное к уровню моря атмосферное давление.
Po - Атмосферное давление - измеренное на уровне метеостанции атмосферное давление.
Tmin - Минимальная температура - минимум температуры воздуха на высоте 2 м над землей.
Tmax - Максимальная температура - максимум температуры воздуха на высоте 2 м над землей.
R - Количество осадков - Количество выпавших осадков за период времени, мм. При наведении курсора мыши на число - период времени, за который выпало указанное количество осадков.
R24 - Количество осадков - Количество выпавших осадков за 24 часа, мм.
S - Снежный покров - Высота снежного покрова, см. При наведении курсора мыши на число - состояние снежного покрова и степень покрытия местности в баллах.